Theta_e
296 295 294 293 293 293 293 292 293 293 293 292 293 292 292 292 292 292 292 293 292 292 292 292 293 294 295 296 296 296 296 297 293 295 297 298 298 298 299 298 298 299 298
294 293 292 292 291 291 290 291 291 290 291 291 290 290 290 290 290 290 290 291 290 290 290 291 291 293 292 293 293 292 293 293 292 290 293 294 293 295 297 294 296 295 294
292 291 290 290 290 289 289 289 289 289 289 288 288 288 288 289 288 289 290 288 288 288 289 288 289 289 288 288 289 289 290 290 290 289 289 292 292 293 293 293 290 291 290
290 289 288 288 288 287 287 287 287 287 287 286 286 286 287 287 287 287 288 287 287 287 287 287 287 287 286 287 287 288 288 287 287 286 287 287 289 291 288 287 288 289 288
288 287 287 286 286 286 285 284 284 284 285 285 285 284 284 285 286 286 286 285 284 285 284 284 285 285 287 288 287 287 286 285 285 285 284 285 286 287 287 289 288 289 285
286 286 285 284 283 283 283 283 283 283 283 283 282 282 282 284 287 288 288 284 284 283 283 283 283 283 286 287 288 288 288 285 285 285 284 284 284 285 287 286 285 284 283
283 283 283 283 282 282 282 282 282 281 281 281 281 281 281 281 286 288 288 284 283 283 282 282 283 284 285 285 287 288 287 287 288 285 283 283 283 285 285 283 283 284 281
283 282 282 282 281 281 281 280 280 280 280 280 280 280 280 281 286 287 287 283 282 282 283 284 284 284 285 285 286 285 285 285 285 285 285 285 285 286 285 284 283 281 282
282 281 281 281 279 278 276 277 279 278 278 277 279 277 275 278 284 286 286 282 282 282 282 284 284 284 286 288 285 283 282 283 287 288 288 287 285 286 287 283 280 279 277
281 280 280 279 275 275 277 275 277 276 278 278 279 276 275 275 282 285 286 282 279 281 282 284 285 285 287 287 284 283 283 283 282 283 279 280 280 279 281 279 282 278 278
279 278 277 276 274 275 274 274 273 271 273 269 274 275 273 275 276 285 286 283 281 281 283 283 284 286 286 287 288 285 284 286 282 277 277 277 277 276 276 276 277 279 277
275 274 272 271 274 274 267 269 267 266 266 270 271 274 274 274 279 283 284 284 285 281 283 283 284 286 286 287 286 287 286 285 277 276 276 276 275 275 275 275 275 275 276
273 272 272 270 270 268 265 266 269 265 265 269 271 272 274 275 274 281 282 283 283 282 283 284 287 287 286 286 285 286 284 280 274 275 276 277 277 278 277 275 274 274 273
272 272 271 270 268 265 270 270 265 264 265 268 269 271 273 274 274 274 277 280 281 282 283 284 285 285 286 285 280 280 278 277 277 278 278 277 277 276 274 275 272 272 270
270 271 269 268 266 267 268 267 269 270 269 265 265 268 272 272 274 279 279 279 280 281 281 282 283 275 279 277 275 276 276 276 277 279 277 273 275 274 273 273 273 269 267
269 268 267 266 265 266 265 265 271 274 275 276 277 276 274 277 278 279 280 281 282 283 281 280 281 278 279 279 275 277 276 277 278 278 273 274 272 272 273 271 270 268 267
264 264 264 265 263 262 261 260 262 265 271 273 274 275 276 276 278 278 279 280 281 282 280 281 281 277 279 279 278 277 275 275 276 276 275 271 272 271 271 269 269 267 265
260 263 260 259 258 257 258 258 257 259 261 263 268 271 274 275 275 277 278 279 274 278 279 280 280 279 280 278 277 275 274 273 273 272 270 270 271 270 268 267 267 265 264
259 258 257 257 257 258 257 258 258 259 261 262 263 267 267 272 273 276 277 271 271 275 277 278 281 280 278 277 276 274 273 272 270 268 264 266 268 268 264 265 266 265 262
254 258 258 255 255 256 257 257 258 258 260 261 262 263 264 267 269 269 270 271 272 274 274 275 277 276 276 275 273 272 270 270 268 266 262 263 265 265 264 262 263 264 260
254 255 259 255 255 255 255 256 257 257 260 261 262 264 271 269 267 267 269 269 268 268 269 271 269 272 273 272 271 270 270 269 267 263 262 263 263 261 262 263 260 260 260
255 254 254 254 255 256 255 255 256 257 259 260 262 263 270 266 267 266 265 265 265 265 266 267 269 269 270 270 270 269 268 266 265 264 262 260 260 261 260 260 260 258 257
257 256 255 254 253 254 253 252 253 254 257 259 260 262 262 263 263 262 262 261 261 262 263 264 265 266 266 266 267 267 265 264 264 263 261 260 260 259 260 258 258 256 256
255 255 254 253 253 253 252 252 253 255 256 257 257 259 261 261 261 260 259 258 259 260 262 263 263 263 263 262 262 259 261 262 263 262 261 260 259 259 258 257 257 256 254
253 253 253 253 251 252 251 251 253 251 252 254 256 257 259 260 259 258 257 257 258 260 261 262 262 262 262 261 260 260 262 262 262 262 262 261 260 258 257 257 256 254 252
252 252 251 251 251 250 249 250 251 252 252 253 254 256 257 259 259 257 258 258 260 262 262 262 262 261 261 260 259 260 261 262 261 261 259 259 258 257 256 256 255 255 254
Wind_Speed
11 10 11 9 8 7 8 6 6 6 6 6 6 6 6 6 6 5 6 6 6 6 6 5 8 6 6 6 6 6 7 8 13 21 12 13 16 14 12 6 8 10 8
9 10 10 9 8 8 7 6 6 6 6 6 6 6 6 6 6 6 6 5 6 7 8 8 10 7 9 8 6 8 9 9 11 20 18 14 14 13 12 13 10 7 8
9 10 9 8 8 7 6 6 6 6 6 6 6 6 5 5 6 5 4 5 5 6 7 8 11 10 10 8 8 9 9 11 12 12 17 13 15 11 14 9 6 8 6
8 9 9 7 7 6 5 6 6 5 5 5 5 6 6 6 6 5 6 6 7 8 9 9 10 10 11 12 10 13 12 13 12 11 13 14 12 13 7 9 10 5 6
9 9 8 6 6 6 6 5 5 5 5 5 5 5 5 5 5 8 7 7 7 8 8 9 9 11 16 17 11 13 13 11 11 11 13 12 13 12 12 11 10 9 2
8 8 6 6 6 6 5 4 4 4 5 4 5 6 7 6 14 15 11 6 6 8 10 9 8 8 12 20 20 20 18 14 14 11 13 13 18 12 9 8 9 9 6
8 7 6 6 6 5 5 5 6 5 4 5 5 5 6 6 13 15 15 6 7 8 9 10 12 9 14 14 19 20 18 18 19 15 16 15 17 13 12 13 11 8 0
7 6 5 6 5 5 5 4 4 2 4 4 5 5 6 6 15 17 15 6 5 6 7 11 14 14 12 16 13 15 13 12 13 11 13 14 12 12 10 8 5 3 4
7 7 6 5 4 3 3 2 3 2 2 3 4 4 5 8 15 17 15 5 6 7 6 10 11 12 18 19 17 15 15 13 10 15 16 12 14 17 10 1 2 3 3
7 6 5 4 4 2 1 2 2 2 4 3 7 4 6 8 14 16 14 5 6 7 7 9 13 18 19 24 14 13 13 12 11 3 4 7 10 10 16 8 2 3 3
6 5 5 3 2 1 0 2 3 3 3 3 6 5 6 6 8 15 17 8 6 9 9 10 9 19 22 23 21 9 11 9 4 3 3 4 6 7 7 8 9 5 2
6 6 5 3 1 1 2 1 2 3 4 6 6 7 2 4 7 13 19 19 18 11 11 9 10 19 22 21 11 13 13 7 2 3 3 4 4 5 6 7 9 9 8
6 5 4 3 1 1 3 4 4 4 3 4 5 7 7 3 3 14 16 19 18 13 11 18 25 22 19 12 11 11 6 1 2 2 2 2 2 1 2 3 5 6 10
6 5 4 4 2 2 3 3 2 2 3 4 4 7 9 7 5 3 6 10 15 14 16 12 13 16 17 10 3 3 2 1 2 3 2 2 1 2 2 2 2 3 5
5 4 4 2 3 3 2 2 2 4 3 3 4 3 9 11 8 21 20 13 12 15 18 11 9 3 5 3 1 1 1 1 1 1 2 1 2 1 1 2 2 3 4
6 4 2 2 3 2 1 2 6 7 10 12 13 11 6 19 25 27 27 28 28 27 12 10 9 5 6 5 3 2 0 0 1 2 2 2 2 1 2 2 3 3 5
6 4 2 2 2 2 2 2 5 4 9 9 13 16 19 21 25 26 28 28 26 23 10 9 7 5 5 5 5 4 3 2 1 2 3 3 3 2 2 2 3 3 3
5 4 3 1 1 1 2 2 1 3 7 6 9 16 18 21 23 25 26 23 11 9 8 9 5 6 5 5 4 4 3 3 2 3 3 3 3 3 2 2 2 3 3
4 3 3 2 2 2 2 2 2 2 5 7 8 9 9 20 23 22 22 7 9 10 7 10 8 6 4 4 4 4 4 4 3 3 2 3 3 3 2 3 3 4 4
2 4 3 2 2 2 1 1 2 2 5 6 7 9 10 10 9 10 10 9 9 10 10 9 6 3 3 4 4 4 4 4 3 3 2 2 3 3 3 4 4 5 2
2 2 3 2 1 1 1 2 2 2 4 6 7 8 21 11 10 9 8 9 11 9 10 9 5 2 1 1 3 4 4 4 4 3 3 2 3 3 3 3 3 3 4
3 3 3 3 1 0 1 2 2 2 4 6 7 8 20 8 8 8 9 9 9 8 6 8 5 3 0 1 1 2 3 4 3 3 3 3 3 4 4 3 3 3 3
4 4 3 1 1 0 1 1 2 2 3 5 6 8 7 7 7 8 9 9 7 7 5 5 5 3 3 3 2 1 2 3 3 4 4 4 4 4 4 3 4 3 3
3 3 2 1 1 0 1 2 2 3 4 4 4 6 7 7 7 8 7 6 6 5 4 5 4 4 3 4 3 3 3 2 2 3 5 4 4 4 3 3 3 3 4
3 2 2 1 1 1 2 2 2 3 4 4 4 4 6 6 6 6 6 5 4 4 4 4 3 4 4 4 4 4 3 4 2 3 3 4 5 6 3 3 4 3 3
2 2 2 1 1 1 2 2 3 4 4 4 3 4 5 6 6 5 5 5 5 4 4 2 3 4 3 2 1 2 1 2 1 2 2 3 4 3 3 4 5 3 3
Wind_Direction
94 95 93 91 87 81 83 79 77 69 54 51 42 36 30 23 14 11 4 358 349 329 320 312 303 297 299 298 295 286 279 269 275 291 289 298 299 301 299 271 267 271 274
102 101 97 95 89 87 81 76 72 71 56 50 39 36 21 13 4 358 340 337 330 323 314 312 305 307 300 298 296 293 288 284 278 284 298 302 297 300 296 295 283 261 268
107 106 98 93 91 85 80 75 65 66 56 41 36 24 355 347 339 333 326 317 311 305 303 307 306 309 303 298 291 292 295 295 290 286 291 295 297 303 296 287 281 282 262
107 104 99 94 94 89 81 73 69 59 54 36 22 358 337 335 320 319 323 316 317 314 309 305 302 299 297 302 297 301 300 299 294 285 287 295 297 301 283 294 292 266 270
110 105 106 104 95 88 73 68 68 53 38 26 2 336 330 333 328 331 322 306 299 302 297 291 291 289 291 294 304 310 308 299 295 291 289 293 290 296 294 298 288 298 294
116 114 114 105 97 91 77 59 51 35 26 21 2 344 334 334 325 324 320 299 294 294 301 306 301 298 314 319 316 310 303 301 298 296 293 289 291 298 299 300 302 297 291
124 121 119 116 111 86 68 44 30 12 359 345 333 318 301 290 313 319 320 309 303 303 308 317 325 322 324 318 312 311 308 296 290 293 287 286 291 297 294 296 291 281 106
120 121 119 105 88 70 54 36 5 328 340 323 305 291 294 303 317 320 318 293 284 290 302 318 320 317 314 313 312 312 311 295 281 276 272 281 283 292 278 279 289 83 73
139 134 125 110 100 74 45 342 313 296 286 257 261 286 286 296 309 317 323 306 295 304 304 317 316 309 306 312 316 310 302 296 292 306 313 9 10 10 2 357 28 99 62
143 132 119 116 116 88 331 317 243 247 274 293 312 284 263 279 306 314 319 289 294 303 298 308 314 317 312 318 308 298 301 313 303 353 3 8 7 7 23 23 5 85 84
121 113 105 95 107 130 309 274 291 305 328 312 294 297 273 274 289 307 321 312 298 307 304 309 310 311 312 311 312 312 303 327 32 44 18 9 9 16 18 21 28 35 63
117 113 104 97 76 147 145 277 330 6 350 323 313 312 290 290 301 316 319 315 309 304 303 301 298 304 313 311 326 326 327 331 45 45 34 25 21 23 25 36 43 51 48
116 109 110 116 117 94 59 7 7 7 354 313 310 310 312 300 260 309 314 315 314 310 299 293 291 294 303 309 307 318 332 54 106 81 74 55 32 30 28 37 44 59 57
122 112 126 99 72 31 20 14 17 329 304 279 296 310 311 319 318 310 306 306 302 298 292 289 269 275 292 280 305 334 334 119 144 138 128 102 42 41 15 16 37 58 57
119 115 72 78 53 32 17 273 232 252 232 257 254 272 313 316 319 318 319 314 305 299 302 291 279 246 260 222 211 316 355 37 136 126 126 114 108 67 23 359 40 33 77
111 89 89 57 29 22 356 311 320 314 326 319 319 317 307 306 315 317 317 315 313 310 294 285 285 245 250 219 185 192 164 198 153 139 144 151 141 134 98 56 60 81 100
119 135 106 77 50 22 338 308 335 328 330 335 330 322 318 314 320 319 318 315 314 306 289 284 272 234 243 209 189 188 185 208 193 142 151 157 138 110 129 104 100 97 89
111 114 126 100 93 289 281 298 276 309 326 324 325 323 321 326 320 318 317 321 315 313 300 287 261 239 221 200 186 176 167 174 170 152 146 153 136 134 128 119 113 122 127
135 135 150 177 212 243 273 280 267 282 303 312 321 319 310 321 318 317 325 315 304 303 309 317 276 237 200 184 179 171 167 170 165 154 155 146 143 135 124 123 127 138 124
135 173 162 172 214 254 303 329 301 300 324 318 315 313 318 312 327 331 321 315 310 321 312 312 308 293 183 177 164 157 159 156 159 164 145 132 127 136 146 147 150 156 146
151 164 175 162 198 225 238 293 280 304 306 304 302 303 315 324 316 309 311 333 317 314 312 309 293 281 291 227 153 161 179 164 159 153 143 143 141 132 125 112 120 117 131
166 181 175 181 201 286 265 241 274 282 297 305 306 306 320 319 314 332 316 312 309 306 308 309 302 309 267 146 156 165 174 156 153 160 142 143 137 133 128 129 132 131 134
174 170 166 172 161 316 360 316 282 264 282 291 303 311 315 321 324 316 312 306 308 313 322 317 311 326 354 28 49 72 167 169 178 161 153 149 152 153 144 142 150 128 150
153 146 148 162 87 30 314 297 284 283 284 290 295 303 313 317 315 310 306 303 311 312 334 335 340 356 17 10 21 23 48 86 133 155 142 151 158 151 133 131 155 150 144
137 143 145 187 218 257 290 285 282 281 278 278 292 295 306 307 311 310 305 305 307 316 347 342 349 4 33 23 17 26 50 75 121 147 146 149 154 153 149 147 152 139 128
140 152 180 193 241 256 262 280 284 282 274 271 277 284 292 303 308 302 306 307 315 315 329 339 343 4 11 54 65 73 130 132 138 167 134 137 149 153 153 155 158 155 146